Wind_Speed
40 41 42 41 38 35 34 34 35 35 36 37 37 34 31 29 28 26 26 27 28 27 27 27 26 24 24 28 31 32 31 30 32 34 33 31 30 30 31 35 38 40 39 38 37 37 36 35 34 33 32 33 31 29 30 30 29 28 25 22 19 19 19 20 20 20 20 20 21 24 27 30 31 31 31 31 31 31 30 30 30 29 28 27 27
43 42 42 42 42 41 39 38 37 36 36 37 39 38 35 33 32 29 29 29 28 27 27 26 26 25 26 27 30 32 33 34 34 35 34 33 33 33 32 34 37 40 41 40 39 39 38 37 35 34 33 33 32 30 30 31 31 31 28 25 22 20 19 20 21 21 21 21 21 22 24 25 26 28 29 31 32 33 33 33 33 32 31 30 30
46 45 44 44 45 45 45 43 41 39 37 36 37 38 37 36 34 33 33 32 30 28 28 27 26 27 27 28 29 31 33 35 37 38 38 36 36 36 36 36 37 40 42 43 41 40 39 38 37 35 35 34 33 31 31 32 33 33 30 28 26 24 22 22 22 22 22 22 22 23 24 24 23 23 24 26 28 31 32 34 35 35 35 34 34
50 50 49 48 47 48 48 47 45 43 41 38 37 38 39 39 37 37 37 36 34 32 31 30 29 28 28 28 28 29 30 31 34 38 40 40 38 39 40 40 39 41 43 44 43 42 41 41 40 39 38 37 36 33 32 33 35 35 33 31 30 28 26 25 25 24 23 24 24 24 25 25 25 24 24 24 24 26 28 30 32 34 36 36 36
53 54 55 54 53 52 52 52 51 49 48 46 43 41 41 41 41 41 40 39 38 36 35 35 33 31 30 30 29 29 30 30 30 33 38 40 41 41 42 43 43 43 44 44 43 43 43 43 44 43 43 42 40 37 35 35 35 37 36 34 33 32 30 29 28 27 26 26 25 25 26 27 28 27 26 26 25 25 25 26 27 29 31 32 33
52 54 56 58 58 57 56 56 56 54 53 53 51 48 46 44 44 44 44 43 42 39 38 38 37 36 35 34 34 34 34 35 34 33 33 37 40 42 44 45 46 46 46 45 44 44 44 44 45 45 44 45 44 41 38 37 37 38 38 38 37 35 33 32 31 30 29 28 27 27 28 28 29 29 29 28 27 27 26 25 25 25 25 26 27
50 52 54 56 59 60 60 59 60 60 59 58 58 57 54 51 48 46 46 45 44 42 40 39 39 40 40 40 39 38 37 39 40 38 35 34 36 40 43 46 47 48 48 47 46 45 44 45 47 48 46 46 46 44 42 40 38 38 39 39 39 38 37 35 33 32 32 30 29 30 29 28 28 29 30 30 30 29 27 25 24 24 24 24 24
49 51 52 55 57 59 60 61 61 62 63 63 62 62 61 59 56 54 51 49 47 45 43 42 41 41 43 44 44 44 42 42 44 44 41 37 36 37 40 44 48 49 49 49 48 48 46 45 47 50 50 50 48 47 45 43 41 40 40 40 41 41 40 38 36 35 35 34 33 32 30 29 29 29 29 30 31 30 28 26 26 26 25 24 24
51 52 53 55 57 59 61 62 62 62 63 65 66 66 66 64 63 62 60 58 56 52 48 47 47 46 46 46 47 48 47 46 48 49 46 42 40 39 40 43 46 50 51 51 52 52 51 50 48 48 51 52 51 49 48 47 44 43 43 41 41 42 42 41 40 39 38 38 36 33 31 31 31 30 28 28 29 29 28 28 29 28 26 26 26
55 55 55 57 58 60 61 62 64 64 63 63 66 68 70 70 68 66 65 65 65 62 58 54 53 52 51 50 50 50 49 48 49 51 51 48 46 44 42 42 45 49 52 53 54 54 53 53 53 51 52 53 53 53 52 50 47 46 46 44 41 41 42 43 43 43 42 41 39 36 33 33 34 31 29 28 28 27 27 28 29 28 27 29 30
59 59 59 60 60 62 62 63 64 65 65 65 64 66 69 72 73 72 71 70 70 70 67 63 60 59 58 57 56 55 54 52 50 50 51 51 50 48 46 44 45 47 51 53 54 54 53 54 55 55 54 54 55 55 55 51 47 46 46 46 43 42 43 44 46 45 44 43 42 39 36 36 36 34 32 30 28 27 26 26 27 27 28 30 32
60 60 60 61 62 64 65 66 66 66 67 67 67 66 67 69 72 74 75 75 75 75 74 72 69 66 64 64 63 62 61 60 58 55 53 51 50 49 48 47 47 48 51 53 55 56 56 56 56 56 56 54 54 55 55 54 50 48 47 46 45 44 43 45 47 48 47 45 44 42 40 39 39 36 34 32 29 27 26 26 27 28 28 29 32
61 61 60 61 62 63 65 67 68 68 68 69 69 69 68 68 69 71 74 76 78 80 80 79 77 75 72 70 70 69 68 67 65 63 60 56 52 51 51 51 50 51 52 54 57 59 59 59 58 58 59 58 56 55 56 57 55 52 50 46 45 46 48 49 50 50 49 48 47 46 45 43 42 39 36 33 31 29 28 28 27 28 28 28 31
61 62 61 61 61 62 63 65 66 68 69 70 70 70 70 70 70 70 71 74 76 79 82 83 82 82 81 80 77 76 75 74 72 70 67 63 58 55 54 54 54 54 54 55 58 61 63 63 62 60 60 61 60 58 57 58 58 57 53 48 46 48 50 50 51 52 52 51 50 50 49 46 44 43 39 35 33 32 32 30 29 28 29 30 32
60 61 60 60 61 61 63 64 65 66 68 69 71 72 72 72 72 72 72 73 74 76 80 82 84 83 84 85 85 84 82 81 79 76 73 70 66 62 59 58 58 58 58 58 59 61 64 66 66 66 63 62 61 60 58 58 60 61 58 54 52 52 51 50 51 53 54 53 53 54 53 49 47 46 43 38 35 35 34 34 32 31 32 33 34
61 61 60 60 60 60 61 62 64 64 65 67 69 71 72 73 73 74 74 74 74 75 77 80 82 83 83 85 87 88 88 87 85 82 79 76 73 70 67 65 63 62 61 61 61 62 65 67 68 70 69 66 63 61 59 58 60 62 62 60 58 58 57 57 56 55 55 55 57 58 57 53 50 48 46 43 39 37 36 36 36 35 35 37 37
62 62 62 62 61 61 61 62 63 64 64 66 67 69 71 72 73 73 74 75 75 76 77 79 80 81 82 83 85 88 90 90 88 87 84 82 79 77 76 73 71 69 67 65 63 63 66 69 70 72 73 72 68 63 60 59 60 64 66 65 64 63 62 63 64 63 62 61 60 59 58 56 53 51 49 46 43 41 39 39 39 38 38 39 40
62 63 63 63 63 63 63 63 63 64 64 65 66 68 69 70 71 72 72 73 74 75 76 78 79 81 81 82 83 86 89 91 91 90 89 87 84 82 81 80 78 76 73 70 67 65 65 68 72 74 75 76 73 68 63 61 62 65 67 67 67 66 66 67 67 66 66 65 63 61 59 56 54 53 51 50 48 45 43 43 44 42 41 41 43
62 63 63 63 63 63 63 64 64 65 65 65 66 66 67 68 69 70 70 71 72 73 74 75 77 79 80 81 82 84 86 89 90 90 90 89 87 85 84 83 82 79 76 72 69 66 65 66 68 72 75 77 77 73 68 64 64 67 67 66 64 64 67 69 68 66 67 66 64 62 60 58 55 52 51 51 51 49 48 48 48 46 44 44 45
63 64 65 65 65 65 64 64 65 65 65 66 66 66 66 67 67 68 69 69 70 71 72 73 74 76 78 79 80 82 83 85 86 86 86 85 85 84 83 83 82 79 76 72 68 65 64 64 65 68 73 76 77 77 73 68 66 67 69 68 68 68 70 70 67 66 66 65 65 64 62 61 58 53 51 51 52 52 52 52 52 50 48 48 48
66 67 68 68 68 68 68 67 66 66 66 66 67 67 67 67 67 67 68 68 68 69 70 71 72 74 75 76 77 78 79 81 82 82 81 80 80 80 79 79 78 76 73 70 68 65 64 64 64 65 70 74 76 78 78 75 71 68 68 70 73 75 73 71 67 65 64 63 63 64 63 62 60 57 55 54 54 55 53 52 52 52 51 51 51
68 69 70 71 71 72 72 71 70 69 68 68 68 68 68 68 67 68 68 68 68 68 68 69 69 71 73 74 75 75 76 76 78 78 78 77 76 76 75 74 74 74 72 71 69 67 65 65 64 64 67 72 75 77 79 80 78 74 70 71 74 76 75 73 70 68 66 65 64 63 63 61 60 58 57 56 57 57 53 50 50 51 51 53 53
70 71 72 73 73 74 75 75 74 73 72 71 70 70 69 69 69 68 68 68 68 68 68 68 68 69 71 72 73 73 73 73 73 74 74 74 73 72 71 71 71 72 72 73 72 70 68 67 66 65 66 70 74 76 79 81 82 81 79 76 76 77 77 75 74 73 72 70 68 67 65 64 61 59 57 57 58 56 53 51 50 50 52 54 54
72 73 74 74 75 76 77 78 78 78 76 75 74 73 72 71 71 70 69 69 69 69 69 68 68 68 69 71 71 71 71 71 70 70 70 70 69 68 67 67 68 69 71 74 74 73 71 70 69 67 66 69 74 76 78 81 82 83 84 82 80 79 77 74 75 76 76 74 72 72 71 69 67 64 61 61 60 58 56 56 53 51 53 54 54
74 75 75 76 76 77 78 79 80 81 80 79 77 76 74 73 73 72 71 70 70 70 70 69 69 69 69 70 70 70 70 69 69 68 67 67 66 66 65 65 66 66 69 71 74 74 73 71 71 69 67 69 73 76 78 81 82 82 82 83 84 83 79 74 72 74 76 76 76 75 75 74 73 71 68 66 63 62 63 62 57 53 53 54 55
74 75 75 75 75 76 77 78 79 80 81 81 80 79 77 76 75 74 73 72 71 71 70 70 70 69 69 70 70 71 70 70 68 68 67 66 66 66 66 65 65 65 66 68 70 72 73 72 71 71 69 69 73 77 79 80 81 81 81 82 83 84 83 79 74 73 75 76 76 76 77 77 76 74 72 70 68 68 68 66 62 58 56 58 60
74 73 73 73 73 73 74 75 76 77 78 78 79 79 78 78 77 76 75 74 72 71 71 71 71 71 70 70 71 71 71 71 70 68 67 66 67 67 67 67 66 65 65 66 68 70 72 72 72 73 72 70 72 76 80 80 81 81 81 81 82 83 83 82 80 77 76 76 76 75 75 75 75 75 74 73 72 71 70 69 66 62 60 60 62
70 69 67 67 67 67 68 69 70 72 73 74 75 76 77 77 77 77 76 74 73 73 72 72 72 72 72 71 71 71 72 72 71 69 67 67 66 67 67 67 67 67 66 66 66 68 71 73 73 74 74 73 72 75 80 82 82 81 81 81 81 82 82 82 82 80 78 77 76 75 74 74 74 75 75 74 74 73 71 71 70 68 64 61 61
61 59 58 58 58 58 59 60 61 63 66 68 71 72 73 74 75 76 75 74 74 74 74 74 73 73 73 72 72 72 73 73 72 70 68 67 66 66 67 67 67 67 67 67 67 68 69 72 74 75 76 75 74 75 80 84 85 83 82 81 81 81 81 80 81 81 80 78 76 76 76 75 75 75 75 74 75 74 72 72 72 72 69 66 65
52 51 50 49 50 50 51 51 52 54 56 60 63 65 68 70 72 74 74 74 73 73 74 74 74 74 73 73 73 72 73 73 73 72 70 68 67 67 67 67 67 68 68 68 68 69 70 71 73 75 77 77 76 75 78 84 87 86 84 83 82 82 81 80 80 81 81 80 79 78 77 76 76 76 75 74 73 73 71 71 72 73 71 70 70
45 44 44 43 43 43 44 44 45 46 48 51 53 56 59 63 67 70 72 72 73 73 73 73 73 73 73 73 72 72 72 73 73 72 71 70 68 68 67 68 68 68 68 69 69 70 71 72 72 74 77 78 79 78 78 81 87 89 88 86 84 83 83 83 82 82 81 81 82 82 80 78 77 77 77 75 74 72 71 70 70 71 71 70 70
39 39 38 38 38 37 38 38 38 39 41 43 45 47 50 54 59 63 67 69 71 72 72 73 73 73 73 72 72 71 71 71 71 71 71 70 69 68 68 68 69 69 69 70 70 71 72 73 73 74 75 78 80 81 79 79 84 89 92 90 87 86 86 85 85 84 83 83 84 84 83 82 80 79 79 78 77 75 74 73 72 72 72 71 71
35 34 34 33 33 33 33 33 33 33 34 36 38 40 43 46 49 54 58 62 65 68 70 71 71 72 72 71 71 71 71 70 69 69 70 70 69 68 67 67 68 69 69 70 71 72 72 73 74 75 75 76 78 81 81 81 81 85 91 93 92 90 87 86 85 86 86 86 86 85 85 84 82 82 82 81 81 80 79 78 77 76 75 74 74
31 31 30 30 29 29 28 28 28 29 29 30 31 33 35 38 41 44 48 52 56 60 64 66 67 68 69 69 69 70 70 69 68 67 68 68 68 67 67 66 67 68 69 69 70 72 73 72 73 74 75 76 76 78 81 83 82 83 87 92 95 94 90 87 86 87 88 88 88 88 87 86 85 84 84 84 84 83 82 82 81 79 78 78 78
28 28 27 27 27 26 25 25 24 24 25 25 26 27 29 31 34 36 39 43 46 49 53 57 59 61 63 64 65 66 66 66 66 65 65 65 66 66 66 65 66 66 67 68 69 71 72 72 72 73 74 76 76 77 79 82 84 84 85 88 93 95 95 92 91 90 90 89 88 88 89 90 90 89 88 87 87 87 86 86 85 83 82 81 80
26 26 25 25 24 24 23 23 22 22 21 22 22 23 24 26 27 30 32 35 37 40 43 46 49 51 53 56 58 59 60 61 60 61 62 62 62 62 63 64 64 65 66 67 68 69 70 71 71 72 73 74 76 76 77 80 83 86 87 88 90 94 96 97 96 95 94 92 90 89 89 90 91 91 90 89 89 89 89 89 88 86 84 82 80
26 25 25 24 23 23 22 22 21 21 20 20 20 20 21 22 23 25 27 29 31 34 36 38 41 42 45 47 50 52 53 54 54 55 56 56 57 57 58 60 61 62 63 65 66 68 69 70 70 71 72 72 74 75 76 78 80 83 86 88 89 91 94 97 98 98 98 96 94 93 92 92 91 90 89 88 87 87 88 88 88 87 86 84 82
26 26 26 25 25 24 24 23 22 22 21 20 20 20 20 20 21 22 24 26 28 30 32 34 36 37 39 41 43 45 47 48 49 49 50 51 51 52 53 55 57 58 60 61 63 65 66 68 69 70 71 71 72 73 75 77 78 80 82 86 88 90 92 95 98 100 99 98 97 97 96 95 94 92 89 88 87 87 86 86 86 86 86 85 83
26 26 26 26 26 26 26 26 25 25 24 23 23 22 22 23 23 23 24 26 27 29 31 32 34 35 36 38 40 41 42 44 45 45 46 47 47 48 49 50 51 54 56 58 59 61 63 65 66 68 69 70 71 71 72 74 77 78 80 82 86 90 93 96 99 101 101 100 98 96 95 95 95 95 93 91 90 89 88 87 86 86 86 85 85
29 29 29 29 29 29 29 29 28 28 27 27 26 26 26 27 27 27 27 28 29 30 32 33 34 35 36 37 38 40 41 41 42 43 44 45 45 45 46 46 47 49 52 53 55 56 58 61 63 65 67 68 69 70 71 73 75 77 80 82 86 90 94 97 99 102 103 104 101 98 95 95 95 95 94 93 91 90 90 89 88 88 88 88 87
31 32 32 32 32 32 32 32 32 32 32 31 31 30 31 31 31 31 31 32 32 33 34 35 35 36 37 38 39 40 40 41 41 42 43 44 44 44 44 44 45 46 48 49 51 53 54 57 59 61 63 66 67 69 70 71 73 75 79 82 85 88 91 94 97 99 102 104 105 103 100 97 95 94 93 92 91 91 90 90 89 89 89 90 90
33 33 33 33 33 33 33 34 34 35 35 35 35 35 35 35 35 35 35 36 36 37 37 38 38 39 40 40 40 41 41 41 42 42 43 44 45 45 45 45 45 44 44 46 48 50 51 53 55 57 59 62 65 66 68 70 72 74 77 80 83 85 88 91 94 96 99 101 104 105 104 102 99 96 93 91 90 91 91 91 90 91 92 92 92
33 33 33 33 33 32 33 33 33 34 35 36 36 37 37 38 38 38 39 39 39 39 40 41 41 42 43 43 43 43 43 43 44 44 44 45 45 45 46 46 46 44 44 45 46 47 49 51 52 54 56 59 61 63 65 67 70 72 75 78 81 84 86 88 90 93 96 98 101 103 104 104 103 100 97 93 91 90 89 90 91 93 94 95 95
33 33 34 33 33 33 33 33 33 33 33 34 35 36 37 37 38 39 40 41 41 42 42 42 43 44 45 45 45 46 46 47 47 46 46 46 46 46 46 47 47 45 45 46 46 46 48 49 50 52 54 56 57 59 62 64 67 69 72 75 78 81 84 87 88 89 92 95 97 99 101 102 103 103 103 100 97 94 93 93 94 96 97 96 96
34 34 34 33 33 33 33 33 33 34 34 34 35 35 35 36 36 37 38 40 41 42 43 43 44 45 45 46 46 47 48 48 49 49 48 48 48 47 47 47 48 47 47 47 47 47 48 48 49 51 52 53 54 56 58 61 64 66 69 72 75 78 81 84 86 87 89 91 93 96 98 100 102 104 105 105 104 102 100 98 97 97 97 97 97
34 34 33 33 32 32 32 32 32 33 33 34 34 35 36 36 36 37 37 38 39 40 41 42 42 43 44 45 46 47 48 49 49 50 50 49 49 49 48 48 49 49 48 48 49 50 49 49 49 50 51 52 53 54 55 58 61 63 66 69 72 75 78 81 83 85 87 88 89 91 94 98 101 103 105 106 106 107 106 104 101 98 97 97 96
33 33 32 31 31 31 30 30 30 30 31 32 32 33 34 35 36 37 38 38 39 40 40 41 41 42 42 43 44 46 47 48 48 49 49 50 50 50 49 49 50 51 50 49 50 51 51 50 50 50 50 50 51 52 54 56 58 61 63 65 67 70 74 77 80 83 85 86 87 88 91 95 99 102 104 106 107 108 110 110 108 104 101 98 96
30 29 29 29 28 28 28 28 28 28 29 29 30 31 32 33 34 35 36 37 38 39 39 40 41 41 42 42 43 44 46 47 47 47 47 48 49 50 50 50 50 51 52 51 52 52 51 51 51 51 50 49 49 51 53 55 57 58 60 62 63 66 69 72 76 79 81 84 85 87 89 93 96 100 103 105 106 107 109 111 112 111 107 103 100
27 27 26 26 26 26 26 26 26 27 27 27 28 28 29 30 31 32 33 34 35 36 36 37 38 39 40 41 42 43 44 46 46 46 46 46 47 48 49 50 51 51 51 52 53 54 53 53 52 51 50 50 50 50 52 54 56 57 58 59 61 63 65 68 71 75 78 80 83 86 89 92 95 98 100 103 104 106 108 109 111 113 113 110 107
26 26 26 26 26 26 26 26 26 26 27 27 27 28 28 28 29 30 31 32 33 34 34 34 35 35 36 37 38 39 41 42 44 45 45 45 46 46 47 49 51 52 52 52 53 55 55 55 53 52 51 51 51 51 53 54 55 56 57 57 58 60 62 65 67 71 74 76 79 82 85 90 93 95 97 100 102 105 107 108 110 111 113 113 113
26 26 25 25 25 25 25 25 26 26 26 27 27 28 28 28 29 29 30 30 31 32 33 33 34 34 34 34 34 35 36 38 39 41 42 43 44 45 46 47 49 51 52 52 53 54 56 56 55 53 53 52 52 52 54 55 56 57 57 58 58 59 61 62 65 67 70 73 75 78 81 85 89 92 95 98 100 103 105 107 108 110 111 112 113
Wind_Direction
250 251 254 254 252 246 242 241 241 241 241 239 240 245 244 235 229 234 240 242 244 246 243 240 238 239 244 246 240 232 226 226 230 234 233 230 227 228 231 232 232 232 232 233 235 238 241 244 246 249 253 255 254 251 249 247 246 246 246 246 248 249 247 244 242 244 246 246 247 249 249 249 250 250 250 250 251 252 252 251 252 253 253 255 256
251 255 257 258 256 254 251 249 248 247 245 242 240 240 236 233 233 235 236 238 243 248 248 244 238 235 238 244 244 239 232 227 228 230 228 226 225 224 225 231 234 235 233 233 235 238 240 240 241 244 248 252 253 251 248 247 247 249 250 249 249 251 252 250 246 243 244 246 247 248 250 251 251 252 253 253 254 255 256 256 257 258 259 259 260
253 255 258 260 260 258 256 255 254 254 252 246 241 236 231 229 231 232 232 234 236 239 244 246 244 242 241 243 246 246 242 238 235 233 230 226 226 223 222 225 231 234 234 234 235 237 238 238 239 242 246 249 250 250 247 246 246 249 251 249 247 247 248 250 249 244 244 246 246 246 250 253 253 254 255 255 255 256 257 258 259 261 262 263 264
258 256 257 260 261 260 259 259 257 257 255 250 243 238 234 230 229 230 232 236 236 234 235 240 245 246 246 246 248 246 244 244 242 238 233 229 226 223 222 225 228 230 232 233 235 236 238 239 242 245 247 247 248 247 245 244 245 246 249 249 248 246 245 247 250 249 247 246 245 244 246 249 250 250 252 253 254 256 258 258 259 259 261 262 263
262 259 258 258 261 261 260 260 259 258 257 254 249 243 239 236 235 236 238 242 244 240 235 234 238 242 243 244 246 245 246 248 248 245 239 233 228 224 224 226 226 227 228 231 233 236 238 241 245 246 246 246 246 244 243 243 243 244 246 248 248 247 245 247 251 253 252 248 246 244 244 245 246 246 246 247 248 251 254 255 256 257 258 259 261
263 262 260 259 260 261 261 261 260 259 259 258 255 249 244 239 238 239 241 244 248 247 241 235 235 237 239 241 243 245 248 250 253 254 249 241 234 230 228 227 226 226 227 228 230 233 235 239 243 244 244 246 246 244 242 242 242 243 244 246 247 248 247 248 251 252 252 251 250 248 246 245 246 246 246 245 244 245 247 250 253 255 256 258 259
262 262 262 261 260 260 261 261 261 260 259 258 258 256 252 246 241 240 241 243 244 246 244 240 236 237 239 241 243 245 247 250 253 255 255 252 245 238 234 231 228 226 226 227 229 232 233 235 240 243 243 244 245 244 243 244 244 243 244 244 246 247 247 247 249 250 250 249 248 248 248 248 249 249 249 249 247 246 245 246 250 253 255 254 253
261 260 261 261 259 258 259 260 261 261 260 258 258 258 257 253 248 245 244 244 243 243 243 242 240 240 241 243 245 248 250 252 255 256 256 257 254 247 241 236 233 230 227 226 228 230 231 233 238 243 243 243 244 243 243 245 247 246 245 245 245 247 247 246 246 247 249 249 248 248 249 251 251 250 250 252 252 251 249 248 248 250 251 252 251
263 261 259 259 259 258 257 256 257 258 259 259 258 257 256 256 254 251 248 248 247 245 243 243 243 244 244 244 245 248 250 252 254 255 255 258 258 253 247 243 238 234 231 228 229 231 232 233 236 240 242 242 242 243 243 245 247 248 247 246 247 248 248 247 245 245 248 250 251 249 251 253 253 250 249 251 253 255 255 253 251 249 250 252 252
264 262 261 259 259 258 257 255 255 255 256 257 258 257 255 255 254 253 251 250 249 248 246 244 244 246 246 246 246 247 249 250 252 252 254 257 258 255 250 246 241 238 234 233 233 234 235 235 235 237 240 240 240 241 241 243 247 249 249 248 248 249 250 249 246 244 246 250 252 251 250 252 253 252 251 251 253 256 256 256 256 255 253 253 254
265 263 262 261 260 259 258 256 255 254 253 254 255 256 256 255 254 254 253 251 250 250 248 246 246 246 246 248 249 250 250 251 252 252 253 256 257 254 251 247 243 239 237 236 237 237 238 238 237 237 239 239 239 238 239 240 244 249 251 250 249 250 252 251 248 245 244 247 250 250 249 250 251 253 254 254 254 255 257 259 261 261 258 257 258
268 266 264 262 261 261 260 258 257 255 254 253 253 254 255 255 255 254 253 253 252 251 250 249 249 247 246 247 249 251 253 255 256 256 256 256 255 252 250 249 245 241 239 238 238 239 240 241 241 240 240 240 240 239 238 237 238 240 244 246 248 250 252 251 249 246 243 244 246 246 246 248 250 251 253 255 256 257 259 259 260 261 261 260 261
272 270 268 265 263 262 261 260 258 257 255 254 253 253 254 255 255 255 254 253 253 252 252 251 250 250 249 248 247 249 252 255 259 260 260 259 257 253 250 249 247 245 241 239 238 238 240 242 242 243 243 242 242 241 239 237 234 234 236 239 241 245 247 249 249 247 245 244 244 244 245 246 248 250 251 253 256 257 257 257 257 259 260 260 259
272 271 270 269 267 265 263 262 260 258 257 255 254 253 254 254 254 255 254 254 253 253 253 252 251 251 251 251 250 249 250 254 258 262 262 262 261 257 253 250 249 248 246 242 240 238 239 242 243 243 243 243 243 242 240 237 234 233 235 236 238 241 245 248 250 249 246 244 243 243 244 245 248 251 251 251 252 254 254 254 254 254 255 255 256
272 270 269 267 266 266 265 264 262 261 259 258 256 255 254 253 253 253 253 254 253 253 254 254 253 251 251 251 252 251 250 252 256 261 263 264 263 261 259 255 253 252 250 248 245 242 240 241 243 243 242 242 242 241 240 238 235 235 235 234 234 237 240 242 245 246 246 246 245 243 243 244 247 251 253 251 250 251 252 253 254 253 251 252 254
275 273 271 268 266 264 263 262 262 261 260 259 259 257 256 255 253 253 252 252 252 252 253 254 255 254 252 251 252 252 253 253 256 259 261 264 265 265 263 262 260 259 257 254 251 248 244 241 242 243 242 241 240 239 238 238 237 236 234 233 233 235 238 240 242 243 244 244 245 244 242 243 245 250 253 252 249 249 251 253 254 253 253 253 255
276 275 273 271 269 266 264 262 260 260 259 258 259 259 258 257 256 255 254 253 253 252 252 252 253 254 254 253 252 253 254 254 256 258 260 262 264 265 266 266 265 265 264 262 258 254 248 244 242 242 241 240 239 237 235 235 237 236 235 235 234 235 238 241 242 242 242 242 243 244 244 245 245 248 251 252 250 249 250 252 253 252 252 254 256
277 276 274 272 270 268 266 264 262 260 259 257 257 258 258 258 258 257 257 256 255 254 253 253 253 253 254 254 254 254 254 255 256 258 259 260 262 263 265 266 266 266 266 265 263 258 252 246 243 242 241 239 237 235 233 232 234 236 235 235 236 236 238 241 241 242 242 242 243 244 245 246 246 246 248 248 249 249 250 251 252 251 250 251 253
279 277 275 273 271 269 267 265 264 262 261 259 258 257 257 258 258 257 257 256 257 256 255 254 254 254 254 255 255 255 256 256 256 257 258 259 260 261 263 264 265 266 265 264 262 257 252 248 245 242 240 238 235 233 231 230 233 236 235 234 235 236 237 238 239 240 241 241 242 243 244 245 245 246 247 248 249 250 251 251 251 250 249 249 250
278 277 276 275 273 271 268 266 264 263 262 261 260 259 258 258 258 258 257 256 256 256 256 256 256 256 256 256 256 256 256 257 257 258 258 259 259 260 261 262 263 263 263 261 258 254 251 249 246 243 240 238 235 232 230 229 231 235 236 235 234 235 236 237 237 239 240 240 241 242 243 243 243 243 244 245 246 246 248 250 250 248 247 248 250
277 276 275 274 273 272 270 268 266 264 263 261 261 260 259 259 259 259 258 258 257 257 256 256 256 257 257 257 257 258 258 258 258 259 259 259 260 260 260 260 260 260 259 257 254 253 251 249 247 244 240 238 236 233 230 228 229 232 235 235 234 235 236 236 237 237 239 240 241 241 241 241 242 242 242 242 243 242 242 247 249 247 245 246 249
275 274 273 273 272 271 270 269 267 266 264 262 261 260 259 259 258 258 258 258 258 257 257 257 257 257 258 258 258 258 259 259 259 259 259 259 259 259 258 258 257 257 256 254 253 252 251 249 247 244 240 238 237 234 231 228 228 229 231 233 234 234 234 235 236 236 237 238 239 240 240 240 242 243 243 243 243 243 242 245 249 248 246 246 248
273 272 271 270 270 270 270 269 268 266 265 263 262 261 260 259 258 258 258 258 258 257 257 257 257 257 257 257 257 257 258 259 259 259 259 258 258 257 256 256 255 254 253 252 251 251 250 249 247 243 239 237 237 235 232 229 228 228 229 230 232 233 233 233 234 236 236 237 237 238 238 239 241 242 242 242 242 242 241 242 246 246 244 244 245
272 271 270 269 268 267 267 267 267 267 265 264 262 261 260 259 258 257 257 257 257 257 257 257 256 256 257 257 257 257 257 257 257 257 258 258 257 257 255 254 253 252 251 250 250 250 249 247 246 243 239 236 236 235 233 231 230 229 229 230 231 232 233 233 234 236 237 237 237 237 237 238 239 239 240 240 240 239 237 239 243 244 243 243 243
274 272 271 270 269 268 266 266 266 266 266 265 264 262 261 260 259 258 257 256 256 257 257 257 256 256 257 257 257 257 256 256 256 256 256 256 256 256 255 254 252 251 250 249 249 248 247 245 244 243 240 236 234 234 233 233 232 230 230 230 231 232 232 232 233 236 237 237 237 237 236 237 237 238 238 239 239 238 237 238 241 242 241 241 241
276 275 274 273 271 270 268 266 265 264 264 264 264 264 263 262 260 259 258 257 256 256 256 256 256 256 256 257 257 257 257 256 255 255 255 255 255 255 254 254 253 251 250 249 248 247 246 244 242 242 240 236 233 233 233 233 233 232 231 231 231 232 232 231 231 233 236 237 237 236 236 237 237 237 238 238 239 239 239 240 241 242 241 240 240
280 279 277 276 274 271 269 267 266 264 263 263 263 262 262 261 261 260 259 257 256 256 255 255 256 256 256 256 257 257 258 257 256 255 254 254 254 254 253 253 253 252 251 250 249 247 245 243 241 240 239 237 233 231 231 232 232 232 232 231 231 231 232 232 231 232 234 237 238 238 237 238 239 238 238 238 239 239 240 240 240 241 241 241 241
284 282 280 278 276 273 271 268 266 264 263 261 260 259 259 259 259 259 258 258 257 256 255 255 255 255 255 256 256 257 258 258 258 256 255 254 254 254 254 253 253 252 251 250 250 248 246 244 242 240 238 237 234 231 230 230 230 232 233 232 231 231 231 231 231 231 232 235 238 239 238 238 238 238 237 238 239 240 240 240 239 239 239 239 241
286 285 283 281 278 276 273 271 268 265 262 260 258 257 256 256 256 257 257 257 256 255 255 255 254 254 255 255 256 257 257 258 259 258 257 256 255 254 254 253 253 252 251 250 249 249 247 245 243 240 239 237 235 233 230 229 229 230 231 232 232 232 231 231 231 230 230 232 235 237 238 237 237 237 236 237 238 239 240 239 238 237 237 237 238
288 287 285 283 281 278 276 273 270 267 264 261 258 256 255 254 254 254 254 254 254 254 254 254 254 254 254 255 255 256 257 258 259 259 258 257 256 255 254 253 252 252 251 250 248 248 247 246 244 242 240 238 236 234 231 229 228 229 230 231 232 233 232 232 232 231 230 230 232 234 236 237 237 237 237 237 238 238 238 239 238 238 237 237 238
291 290 289 287 285 282 279 276 273 270 266 263 260 257 255 253 252 252 252 252 253 253 253 253 254 254 254 254 255 255 256 257 258 258 258 258 257 255 254 253 252 251 250 249 248 247 246 246 245 243 241 239 237 236 233 231 229 229 229 229 231 232 233 233 233 233 232 231 232 233 234 235 237 237 237 238 238 238 238 238 239 239 239 240 241
296 295 294 292 290 288 285 281 277 273 269 266 262 259 256 253 252 251 250 250 250 251 252 252 253 254 254 255 255 255 255 255 256 258 258 258 256 255 254 253 252 251 250 249 248 247 246 245 245 244 242 240 238 237 235 233 231 230 229 228 229 230 232 233 234 234 234 234 233 233 234 235 236 236 237 238 239 240 240 240 240 240 240 241 242
301 300 299 297 295 293 291 287 284 279 274 270 266 262 258 255 253 251 250 250 249 250 250 251 252 253 253 254 255 256 256 255 255 256 257 257 256 255 254 253 252 251 250 249 249 248 247 245 244 244 243 241 240 238 237 235 233 231 230 229 229 229 230 232 233 234 235 235 235 235 235 236 237 237 237 238 239 240 241 241 241 240 240 242 244
306 305 304 302 300 298 295 293 290 286 281 276 271 266 262 258 255 253 251 250 250 250 250 251 251 251 252 253 254 255 256 256 256 255 255 256 256 255 254 253 252 251 250 249 249 248 248 246 245 244 243 242 241 240 238 236 235 234 232 231 230 229 230 231 233 234 234 235 236 236 236 237 237 237 238 238 239 240 240 241 241 241 242 244 247
308 307 306 305 304 303 301 298 295 292 289 284 278 272 267 262 259 256 253 251 250 250 251 251 251 251 252 252 253 254 255 255 256 256 256 255 256 255 254 253 252 251 250 249 248 248 248 247 246 245 244 242 241 240 239 238 236 235 234 232 231 230 230 231 233 234 234 233 234 236 236 237 238 238 239 239 240 240 240 241 242 243 244 246 247
308 307 307 307 307 306 304 303 300 297 294 290 285 280 274 268 263 260 256 253 251 250 250 251 252 252 252 252 252 253 253 254 254 255 255 255 255 254 254 253 252 251 250 249 249 248 248 248 247 246 244 243 241 240 239 238 237 236 235 234 233 232 231 231 232 234 234 233 233 234 235 235 236 238 239 240 241 241 242 242 243 244 245 245 246
311 310 309 309 308 307 306 305 303 300 297 293 289 284 279 274 269 265 261 257 253 251 249 249 250 251 252 253 253 254 254 253 253 253 253 254 253 252 252 252 251 250 249 248 248 248 247 247 247 246 245 244 242 240 239 238 238 237 236 235 234 233 232 232 233 234 235 235 235 235 236 236 236 236 237 238 239 241 242 243 243 244 244 245 245
311 311 310 309 309 307 306 304 302 299 297 294 290 285 280 276 271 268 265 262 258 255 252 250 248 248 249 251 253 254 255 255 254 253 252 252 252 252 251 250 250 249 249 248 247 247 247 246 246 246 245 244 242 241 239 238 238 238 237 236 236 235 234 233 234 234 235 236 236 237 238 238 238 238 237 237 238 239 241 242 243 243 244 245 245
305 305 305 305 304 303 302 301 298 296 294 291 288 285 280 276 272 269 266 264 263 260 258 255 253 250 248 248 249 251 253 255 255 254 252 251 251 251 251 250 249 249 249 248 247 246 246 246 245 245 245 244 243 242 240 238 237 237 237 237 236 235 234 234 234 234 235 236 236 237 238 240 241 241 240 239 239 239 240 241 242 243 244 244 245
299 299 298 297 297 296 295 295 293 292 290 287 284 282 279 276 273 270 267 265 264 263 262 261 259 257 254 252 251 251 252 254 255 255 254 253 252 251 251 251 250 249 249 248 248 247 246 245 245 244 244 244 243 242 241 239 237 236 236 236 235 235 234 233 233 234 234 235 236 236 237 238 240 241 242 242 242 241 242 242 243 244 244 245 245
298 296 295 293 292 291 290 289 288 287 286 284 282 280 277 275 272 270 268 266 264 263 263 262 261 260 259 257 256 254 254 254 254 255 256 255 254 253 252 251 251 250 249 249 248 248 247 245 245 244 244 243 243 242 241 240 238 237 236 236 236 236 235 234 234 234 234 235 235 236 236 237 238 240 242 243 244 245 245 244 244 245 245 246 246
301 299 297 295 293 291 289 288 286 285 283 282 280 279 277 275 274 272 270 268 266 265 264 263 262 262 262 261 260 259 258 256 256 256 256 256 256 256 255 253 251 250 250 249 249 248 247 246 245 244 243 243 242 242 241 240 239 237 236 236 237 237 237 236 235 234 234 235 235 236 236 237 238 239 240 242 244 246 247 247 247 247 248 248 248
304 302 301 299 297 295 292 290 288 285 284 282 280 279 277 276 275 274 273 271 270 268 267 265 265 264 264 263 263 263 262 260 259 258 257 257 257 257 257 256 254 251 250 249 249 248 248 247 246 245 244 243 242 241 241 240 239 238 237 236 236 237 238 238 237 236 235 235 235 236 237 238 238 239 240 241 241 242 244 244 245 245 245 246 247
305 303 302 300 299 297 295 293 291 288 286 284 282 280 279 277 276 275 274 273 272 271 270 268 267 266 266 265 265 265 264 264 263 261 260 259 258 258 258 258 257 254 252 250 248 248 247 247 246 245 244 244 243 242 241 240 240 239 238 237 237 237 237 237 238 238 237 236 236 236 237 237 238 239 240 240 240 240 240 240 241 241 242 243 245
307 305 303 301 299 297 295 293 291 290 288 286 285 283 282 280 278 277 276 274 273 273 272 271 269 268 268 267 266 265 264 264 263 263 262 261 260 259 258 258 258 257 254 252 250 248 247 246 247 246 245 245 244 242 241 241 240 239 239 238 238 237 237 237 237 238 238 238 237 236 236 237 238 238 239 240 240 241 240 241 242 243 244 245 246
312 310 308 306 304 301 299 296 293 291 289 287 285 284 283 281 280 279 278 276 275 274 273 272 271 270 269 268 267 266 265 264 264 263 262 262 261 260 259 258 258 258 256 255 253 251 248 247 246 246 246 245 244 243 242 241 241 240 240 239 238 238 238 238 237 237 238 238 238 238 237 237 238 238 238 239 239 241 242 242 242 242 243 245 246
315 314 312 311 309 307 305 302 300 297 294 291 289 287 285 283 282 280 279 278 277 276 275 274 273 272 271 269 268 267 266 266 265 264 263 262 262 261 259 258 257 257 257 256 255 253 251 249 247 246 245 244 244 243 242 241 241 241 241 240 240 239 239 239 238 237 237 237 238 238 238 238 238 238 239 238 238 239 241 242 242 242 242 242 243
317 315 314 313 312 311 309 307 305 303 301 298 295 293 290 288 286 284 282 280 279 278 277 275 274 273 272 271 270 269 268 267 266 265 263 262 261 261 260 258 257 256 256 256 255 255 254 252 249 247 245 243 242 242 241 241 240 240 240 240 240 240 240 239 239 238 237 237 237 237 238 238 238 238 238 239 239 239 240 241 242 243 243 242 242
321 320 319 318 317 315 314 313 311 309 307 304 302 299 297 295 293 291 288 286 284 282 280 278 277 275 274 272 270 269 268 268 267 266 265 263 261 260 259 259 257 256 255 255 255 255 255 253 252 249 246 243 241 240 240 240 240 240 239 239 240 240 240 240 240 239 238 237 236 237 238 238 239 239 239 239 239 240 240 240 241 242 243 243 243
327 326 324 323 322 320 319 318 316 314 312 310 308 306 303 301 299 297 296 294 292 290 287 285 282 280 277 275 273 271 269 268 267 266 265 264 262 260 258 257 257 257 256 254 254 254 255 255 254 252 249 246 242 240 239 240 240 240 239 239 239 240 241 241 240 240 239 238 237 237 238 239 240 240 240 240 240 240 240 241 241 242 242 243 244
329 328 327 326 325 324 323 322 320 317 315 313 311 309 307 304 302 301 299 298 297 296 294 292 290 287 284 281 278 275 273 271 269 267 265 263 262 260 258 256 255 256 256 255 254 253 254 254 254 253 251 249 245 241 239 239 240 240 239 239 239 239 240 241 241 241 241 239 238 237 238 239 240 241 241 241 242 242 242 242 242 242 242 243 244
Height
10892 10891 10890 10890 10891 10892 10894 10896 10897 10898 10899 10900 10901 10901 10900 10900 10900 10900 10899 10899 10899 10899 10899 10901 10902 10904 10905 10905 10907 10908 10908 10908 10909 10911 10913 10914 10915 10916 10917 10919 10921 10923 10925 10926 10928 10929 10931 10932 10934 10935 10936 10937 10937 10938 10939 10940 10941 10942 10943 10944 10944 10945 10945 10946 10946 10947 10948 10949 10950 10951 10952 10953 10954 10955 10956 10957 10958 10959 10960 10961 10961 10962 10962 10963 10963
10887 10887 10886 10885 10886 10887 10888 10890 10892 10893 10894 10895 10896 10896 10896 10895 10895 10895 10895 10894 10894 10895 10896 10897 10898 10900 10901 10901 10903 10904 10904 10904 10904 10905 10907 10908 10909 10910 10912 10914 10916 10918 10921 10922 10922 10924 10925 10927 10929 10930 10931 10933 10934 10935 10936 10936 10937 10938 10940 10941 10942 10942 10943 10944 10944 10945 10945 10945 10947 10948 10948 10949 10950 10951 10952 10953 10954 10955 10956 10957 10958 10958 10959 10960 10960
10881 10882 10881 10881 10881 10881 10882 10884 10886 10887 10888 10889 10890 10891 10891 10891 10890 10890 10890 10890 10890 10891 10891 10893 10894 10896 10897 10897 10898 10899 10900 10900 10900 10900 10901 10902 10904 10905 10906 10908 10910 10913 10915 10916 10917 10919 10921 10922 10924 10926 10927 10928 10930 10931 10932 10933 10934 10935 10936 10937 10938 10939 10940 10941 10941 10942 10942 10943 10944 10945 10945 10946 10947 10948 10948 10949 10950 10950 10951 10953 10954 10954 10955 10956 10957
10873 10875 10876 10876 10876 10876 10877 10878 10880 10881 10882 10883 10884 10885 10885 10885 10885 10884 10884 10884 10885 10886 10887 10888 10890 10892 10893 10893 10893 10894 10895 10896 10896 10896 10896 10897 10898 10899 10901 10902 10904 10906 10908 10911 10913 10914 10916 10918 10919 10921 10922 10924 10925 10927 10928 10929 10930 10931 10932 10933 10934 10935 10936 10937 10938 10940 10940 10940 10940 10941 10942 10942 10943 10944 10944 10945 10945 10946 10946 10948 10948 10949 10950 10951 10952
10866 10868 10869 10870 10871 10871 10871 10871 10872 10874 10875 10876 10878 10879 10879 10879 10878 10877 10877 10877 10878 10881 10882 10883 10885 10887 10888 10888 10889 10889 10891 10891 10891 10891 10891 10891 10892 10893 10895 10896 10898 10899 10902 10905 10908 10910 10912 10912 10913 10915 10917 10918 10920 10922 10923 10924 10925 10927 10928 10929 10930 10931 10932 10934 10935 10937 10937 10936 10937 10938 10938 10938 10939 10940 10940 10940 10941 10941 10941 10942 10943 10944 10945 10946 10947
10860 10861 10862 10863 10864 10864 10864 10864 10865 10866 10867 10868 10869 10871 10873 10873 10872 10871 10871 10870 10871 10873 10875 10877 10879 10881 10882 10883 10884 10884 10885 10886 10887 10887 10886 10887 10887 10888 10889 10890 10891 10893 10896 10899 10902 10904 10906 10907 10907 10909 10912 10913 10915 10917 10918 10919 10921 10922 10923 10925 10925 10927 10929 10930 10932 10932 10933 10933 10934 10934 10934 10935 10935 10936 10936 10936 10936 10936 10937 10937 10938 10939 10940 10941 10942
10854 10855 10855 10856 10856 10857 10857 10857 10858 10858 10859 10859 10860 10861 10864 10866 10866 10865 10864 10864 10865 10867 10869 10870 10872 10874 10875 10876 10877 10879 10880 10881 10881 10881 10882 10882 10882 10883 10884 10885 10886 10887 10890 10893 10896 10898 10900 10901 10900 10902 10906 10908 10910 10912 10914 10915 10917 10918 10919 10920 10921 10922 10924 10927 10928 10928 10929 10930 10930 10929 10930 10931 10931 10932 10933 10933 10933 10933 10933 10934 10935 10936 10937 10937 10938
10847 10847 10847 10847 10847 10849 10850 10850 10850 10850 10850 10851 10852 10852 10854 10856 10858 10858 10857 10857 10858 10860 10862 10863 10865 10866 10867 10868 10870 10872 10874 10875 10875 10875 10876 10876 10877 10877 10878 10879 10881 10882 10884 10886 10889 10891 10893 10893 10893 10895 10899 10902 10905 10907 10909 10911 10912 10914 10915 10916 10917 10918 10920 10922 10924 10925 10925 10926 10926 10926 10926 10927 10927 10928 10929 10930 10930 10930 10931 10932 10932 10932 10933 10934 10935
10839 10839 10839 10838 10838 10839 10840 10842 10842 10842 10841 10842 10843 10844 10845 10846 10848 10850 10850 10849 10849 10852 10854 10856 10858 10859 10860 10861 10862 10864 10867 10868 10868 10868 10869 10871 10871 10872 10872 10874 10875 10876 10878 10880 10882 10885 10886 10886 10887 10889 10892 10896 10900 10902 10904 10905 10907 10909 10910 10912 10913 10914 10915 10918 10920 10920 10921 10922 10922 10923 10923 10924 10924 10925 10926 10926 10926 10927 10929 10929 10929 10929 10931 10931 10932
10830 10831 10830 10830 10829 10829 10830 10831 10833 10834 10834 10833 10833 10834 10835 10837 10838 10840 10841 10841 10840 10842 10845 10847 10849 10851 10852 10853 10855 10856 10858 10860 10861 10861 10861 10863 10865 10866 10866 10867 10868 10870 10872 10874 10876 10878 10880 10880 10882 10884 10886 10890 10894 10896 10897 10899 10901 10903 10905 10908 10910 10910 10911 10913 10914 10916 10917 10918 10918 10920 10921 10921 10920 10921 10922 10923 10923 10924 10925 10926 10926 10927 10929 10928 10928
10820 10821 10822 10821 10821 10820 10820 10821 10822 10824 10826 10826 10825 10824 10825 10827 10829 10830 10832 10833 10832 10832 10834 10838 10840 10842 10844 10845 10846 10848 10849 10851 10853 10854 10854 10855 10857 10858 10860 10860 10861 10863 10866 10867 10869 10871 10873 10875 10876 10878 10880 10883 10886 10888 10890 10894 10897 10899 10901 10904 10906 10908 10908 10908 10909 10910 10911 10912 10913 10915 10917 10916 10916 10918 10919 10919 10920 10921 10922 10923 10923 10924 10925 10926 10925
10810 10811 10811 10812 10812 10811 10810 10810 10811 10813 10815 10816 10816 10816 10816 10816 10818 10820 10821 10823 10823 10823 10824 10827 10830 10833 10835 10836 10837 10838 10840 10842 10844 10845 10847 10849 10850 10851 10853 10854 10855 10856 10858 10860 10862 10864 10866 10868 10870 10872 10874 10876 10879 10882 10885 10888 10890 10891 10893 10896 10901 10904 10904 10904 10903 10903 10905 10906 10907 10909 10911 10911 10911 10913 10915 10915 10917 10918 10919 10919 10920 10920 10921 10922 10922
10799 10799 10800 10800 10801 10801 10800 10800 10801 10802 10803 10804 10806 10807 10807 10807 10808 10809 10810 10811 10813 10813 10813 10816 10820 10823 10824 10826 10827 10829 10830 10832 10833 10835 10838 10841 10842 10844 10845 10847 10848 10849 10850 10852 10854 10856 10858 10860 10863 10866 10867 10870 10873 10876 10878 10880 10882 10883 10885 10888 10893 10895 10895 10895 10896 10897 10899 10900 10901 10903 10904 10905 10906 10908 10910 10911 10913 10914 10915 10915 10916 10916 10918 10918 10918
10788 10787 10788 10788 10789 10789 10789 10789 10790 10790 10791 10793 10794 10796 10797 10798 10798 10799 10799 10800 10801 10801 10802 10804 10808 10812 10814 10815 10816 10818 10820 10822 10823 10824 10827 10830 10833 10835 10836 10838 10840 10842 10844 10845 10847 10849 10850 10852 10855 10857 10859 10862 10864 10867 10870 10873 10876 10878 10880 10883 10885 10885 10885 10887 10889 10891 10893 10894 10895 10896 10897 10899 10901 10902 10905 10907 10909 10909 10910 10910 10911 10912 10913 10913 10913
10777 10776 10776 10777 10778 10778 10778 10778 10779 10779 10780 10780 10781 10783 10785 10787 10788 10789 10789 10789 10790 10790 10790 10791 10794 10799 10803 10804 10804 10806 10808 10811 10812 10813 10815 10818 10821 10824 10825 10828 10830 10833 10835 10837 10839 10841 10842 10844 10846 10848 10851 10853 10855 10858 10863 10867 10870 10873 10875 10877 10877 10876 10878 10880 10881 10883 10886 10889 10889 10889 10890 10893 10895 10897 10899 10903 10904 10904 10905 10906 10907 10907 10908 10908 10908
10765 10764 10765 10765 10766 10767 10767 10767 10767 10768 10768 10769 10769 10770 10772 10774 10776 10778 10778 10779 10779 10780 10780 10779 10780 10785 10790 10793 10793 10793 10795 10798 10801 10802 10804 10806 10809 10811 10813 10815 10818 10821 10824 10827 10830 10832 10834 10836 10837 10839 10841 10844 10846 10850 10855 10859 10863 10865 10866 10867 10868 10869 10870 10871 10872 10876 10880 10881 10881 10881 10883 10886 10889 10891 10894 10897 10899 10899 10900 10902 10902 10903 10903 10903 10903
10754 10753 10753 10753 10753 10754 10755 10755 10755 10756 10757 10757 10757 10757 10758 10760 10762 10765 10766 10767 10768 10769 10770 10769 10769 10771 10775 10779 10782 10782 10783 10786 10789 10791 10793 10796 10797 10799 10800 10802 10805 10808 10811 10815 10819 10821 10823 10826 10827 10829 10831 10833 10836 10841 10847 10852 10854 10854 10856 10858 10859 10862 10863 10863 10864 10867 10870 10871 10872 10874 10877 10880 10883 10886 10888 10890 10892 10893 10895 10896 10896 10896 10897 10898 10898
10743 10742 10742 10741 10741 10742 10742 10742 10743 10743 10744 10746 10746 10746 10746 10747 10749 10751 10753 10754 10755 10757 10758 10759 10758 10759 10761 10764 10768 10769 10770 10773 10778 10780 10782 10785 10787 10788 10789 10790 10792 10795 10799 10803 10806 10809 10811 10814 10816 10818 10820 10823 10827 10832 10837 10842 10843 10843 10845 10849 10851 10853 10854 10852 10854 10857 10860 10862 10865 10867 10869 10872 10876 10879 10881 10883 10885 10887 10889 10889 10888 10889 10891 10891 10891
10732 10731 10730 10729 10729 10730 10730 10730 10730 10731 10732 10733 10734 10734 10734 10735 10736 10738 10740 10741 10742 10743 10745 10747 10747 10747 10749 10750 10753 10755 10756 10759 10764 10768 10770 10773 10776 10778 10779 10779 10781 10783 10787 10791 10794 10796 10799 10801 10804 10806 10808 10812 10818 10823 10827 10832 10833 10832 10835 10841 10843 10844 10841 10840 10844 10849 10851 10855 10858 10860 10863 10865 10868 10872 10874 10876 10878 10881 10882 10881 10881 10883 10884 10884 10884
10722 10720 10718 10717 10717 10717 10718 10718 10719 10719 10720 10720 10721 10722 10723 10723 10724 10725 10727 10729 10730 10731 10732 10734 10735 10735 10736 10737 10739 10741 10743 10745 10749 10754 10757 10760 10763 10766 10767 10768 10769 10772 10776 10779 10782 10784 10786 10789 10792 10795 10797 10801 10807 10813 10817 10822 10824 10823 10826 10831 10832 10830 10828 10830 10836 10841 10843 10847 10850 10852 10854 10856 10858 10862 10864 10866 10868 10870 10871 10872 10874 10875 10877 10877 10877
10711 10709 10706 10705 10704 10703 10704 10705 10706 10707 10708 10709 10709 10709 10710 10712 10712 10713 10714 10716 10718 10719 10720 10722 10723 10723 10723 10725 10726 10728 10731 10732 10735 10739 10743 10746 10749 10752 10755 10756 10757 10760 10763 10766 10769 10771 10774 10777 10780 10783 10786 10790 10796 10802 10806 10810 10813 10813 10814 10816 10816 10816 10819 10824 10830 10833 10836 10839 10841 10843 10844 10846 10849 10852 10854 10856 10857 10858 10861 10864 10865 10867 10869 10871 10871
10700 10697 10695 10693 10691 10690 10690 10691 10692 10693 10695 10696 10697 10697 10698 10700 10701 10701 10702 10704 10705 10707 10708 10710 10712 10711 10711 10713 10715 10716 10718 10720 10722 10724 10729 10733 10736 10739 10741 10743 10745 10747 10750 10753 10755 10758 10762 10765 10768 10771 10775 10779 10783 10788 10792 10795 10798 10800 10800 10800 10801 10805 10810 10816 10821 10823 10826 10829 10831 10834 10837 10839 10841 10844 10846 10848 10849 10850 10854 10858 10860 10861 10863 10864 10865
10687 10684 10683 10681 10679 10678 10677 10676 10677 10678 10680 10682 10683 10684 10686 10688 10689 10690 10691 10692 10694 10695 10697 10699 10701 10701 10700 10701 10703 10705 10707 10709 10710 10712 10715 10720 10723 10726 10729 10730 10732 10735 10737 10738 10741 10745 10749 10753 10756 10759 10764 10767 10770 10774 10778 10780 10783 10785 10787 10789 10790 10793 10799 10806 10809 10811 10813 10818 10822 10826 10829 10830 10832 10835 10837 10839 10840 10844 10849 10851 10852 10852 10852 10853 10855
10673 10671 10670 10668 10667 10666 10665 10663 10662 10663 10664 10666 10668 10670 10672 10674 10676 10678 10680 10682 10682 10683 10685 10687 10689 10690 10689 10689 10691 10694 10697 10698 10699 10701 10704 10707 10711 10714 10717 10718 10720 10722 10724 10725 10727 10732 10736 10740 10743 10747 10752 10756 10758 10761 10765 10767 10770 10774 10778 10780 10782 10783 10789 10796 10799 10799 10803 10808 10813 10816 10819 10821 10822 10824 10826 10829 10832 10836 10839 10839 10840 10842 10843 10845 10847
10658 10657 10656 10655 10654 10653 10651 10649 10649 10649 10649 10651 10653 10656 10659 10661 10663 10666 10668 10671 10672 10672 10674 10676 10678 10679 10679 10679 10679 10682 10685 10687 10688 10691 10694 10697 10699 10701 10704 10705 10707 10709 10712 10712 10714 10718 10723 10727 10731 10736 10741 10745 10747 10750 10752 10755 10758 10763 10767 10770 10772 10774 10778 10785 10789 10790 10792 10796 10801 10804 10807 10809 10812 10814 10816 10820 10824 10826 10827 10829 10832 10835 10836 10837 10838
10645 10643 10642 10640 10640 10639 10637 10635 10635 10635 10636 10637 10639 10642 10645 10648 10650 10652 10655 10658 10660 10662 10663 10664 10665 10667 10668 10668 10668 10669 10671 10674 10677 10680 10683 10686 10688 10689 10691 10693 10695 10698 10700 10701 10703 10706 10710 10715 10720 10724 10728 10732 10736 10739 10741 10743 10746 10751 10755 10758 10761 10763 10767 10773 10778 10780 10780 10784 10789 10794 10797 10800 10803 10805 10808 10812 10815 10816 10819 10823 10827 10828 10829 10829 10830
10631 10629 10627 10626 10624 10623 10621 10620 10620 10621 10623 10625 10627 10629 10631 10633 10635 10637 10641 10645 10648 10651 10652 10652 10653 10655 10656 10656 10657 10657 10658 10660 10664 10669 10673 10675 10676 10678 10680 10682 10684 10687 10690 10691 10692 10694 10698 10702 10707 10711 10715 10719 10724 10727 10729 10732 10735 10739 10742 10746 10750 10752 10755 10760 10766 10770 10771 10774 10779 10785 10789 10792 10794 10796 10800 10803 10806 10808 10811 10815 10818 10819 10820 10821 10822
10616 10614 10612 10611 10609 10607 10606 10606 10606 10607 10609 10611 10612 10614 10617 10619 10621 10623 10627 10632 10636 10638 10639 10640 10642 10643 10644 10645 10646 10647 10647 10648 10651 10657 10662 10664 10666 10668 10670 10672 10674 10677 10679 10681 10683 10684 10687 10690 10694 10698 10702 10706 10711 10715 10718 10720 10724 10727 10731 10735 10738 10741 10745 10750 10756 10760 10762 10765 10769 10774 10779 10782 10785 10787 10791 10794 10796 10798 10802 10805 10807 10809 10810 10813 10815
10603 10601 10599 10597 10595 10594 10593 10593 10593 10593 10594 10596 10598 10600 10604 10607 10609 10611 10614 10618 10622 10625 10626 10628 10630 10632 10633 10635 10636 10637 10637 10637 10640 10645 10650 10653 10656 10658 10660 10662 10664 10666 10669 10671 10673 10674 10675 10678 10682 10685 10689 10693 10698 10703 10706 10709 10712 10716 10720 10724 10727 10731 10736 10741 10745 10748 10751 10755 10760 10763 10767 10772 10775 10777 10781 10784 10785 10787 10791 10793 10796 10798 10801 10803 10804
10592 10590 10588 10587 10585 10583 10582 10582 10581 10582 10582 10583 10585 10588 10592 10595 10597 10599 10602 10605 10609 10612 10614 10616 10619 10620 10622 10624 10626 10628 10628 10628 10630 10634 10637 10641 10645 10647 10648 10650 10652 10655 10657 10660 10662 10663 10663 10666 10669 10673 10676 10681 10685 10690 10694 10697 10701 10705 10709 10713 10717 10721 10726 10730 10733 10737 10741 10746 10750 10752 10756 10761 10764 10767 10771 10773 10774 10777 10781 10784 10786 10789 10792 10793 10794
10584 10582 10580 10578 10576 10574 10573 10572 10572 10572 10572 10572 10574 10577 10580 10583 10584 10587 10590 10593 10596 10600 10602 10604 10607 10609 10611 10613 10616 10618 10619 10619 10620 10623 10626 10629 10632 10635 10636 10638 10640 10642 10645 10648 10650 10651 10651 10653 10657 10660 10664 10668 10672 10676 10681 10686 10690 10693 10697 10702 10707 10711 10715 10719 10722 10727 10732 10736 10738 10741 10745 10749 10752 10756 10760 10762 10764 10768 10772 10775 10778 10781 10783 10785 10786
10577 10575 10573 10571 10569 10567 10566 10565 10564 10564 10564 10564 10565 10567 10570 10572 10573 10575 10578 10582 10585 10588 10590 10593 10595 10598 10600 10603 10605 10607 10609 10611 10612 10613 10614 10616 10619 10622 10624 10626 10628 10631 10633 10635 10637 10638 10639 10642 10644 10647 10651 10655 10659 10664 10669 10674 10678 10681 10686 10691 10696 10699 10704 10709 10714 10719 10723 10725 10728 10731 10735 10738 10741 10745 10749 10751 10754 10758 10763 10766 10769 10771 10773 10775 10776
10572 10569 10567 10565 10563 10562 10560 10559 10558 10557 10557 10557 10558 10559 10561 10563 10564 10566 10568 10571 10574 10577 10579 10582 10585 10587 10589 10592 10594 10595 10597 10600 10603 10604 10604 10604 10606 10610 10612 10614 10616 10619 10621 10623 10625 10626 10628 10631 10633 10634 10638 10643 10647 10652 10657 10662 10666 10670 10675 10680 10684 10689 10696 10703 10708 10711 10713 10715 10718 10722 10726 10729 10732 10735 10738 10741 10744 10748 10752 10755 10758 10760 10763 10765 10766
10567 10565 10563 10561 10559 10557 10556 10554 10553 10552 10552 10551 10552 10553 10554 10555 10556 10558 10560 10562 10564 10566 10568 10571 10574 10577 10578 10581 10583 10584 10586 10588 10591 10593 10594 10594 10595 10597 10600 10603 10605 10606 10608 10611 10612 10613 10615 10618 10621 10623 10626 10631 10635 10640 10645 10650 10654 10659 10664 10668 10672 10678 10687 10694 10697 10698 10700 10705 10710 10713 10716 10719 10721 10724 10727 10730 10734 10737 10740 10743 10746 10749 10752 10754 10756
10564 10562 10559 10557 10555 10554 10552 10551 10550 10549 10548 10547 10547 10547 10548 10549 10549 10551 10552 10554 10556 10558 10559 10560 10563 10566 10568 10570 10572 10574 10575 10577 10579 10581 10583 10584 10584 10586 10588 10591 10593 10595 10596 10598 10600 10601 10603 10606 10609 10612 10615 10619 10623 10628 10633 10637 10641 10646 10651 10656 10660 10666 10674 10680 10682 10682 10687 10694 10700 10702 10704 10707 10709 10712 10715 10719 10722 10725 10728 10730 10734 10738 10741 10744 10746
10561 10559 10557 10555 10553 10551 10549 10548 10547 10546 10545 10544 10544 10543 10543 10544 10544 10545 10546 10547 10549 10551 10552 10553 10554 10556 10558 10560 10562 10563 10565 10567 10569 10570 10572 10573 10574 10575 10577 10579 10581 10583 10585 10586 10588 10590 10592 10595 10597 10600 10603 10607 10611 10615 10620 10624 10627 10632 10637 10642 10647 10653 10659 10665 10668 10670 10674 10682 10686 10687 10689 10693 10695 10698 10703 10707 10710 10713 10715 10718 10722 10726 10729 10732 10735
10558 10556 10554 10552 10550 10549 10547 10546 10544 10543 10543 10542 10541 10541 10540 10540 10540 10540 10541 10542 10543 10545 10546 10546 10547 10549 10549 10550 10552 10554 10556 10558 10560 10561 10562 10563 10564 10565 10567 10568 10570 10572 10574 10576 10577 10579 10581 10583 10586 10588 10591 10595 10599 10604 10608 10612 10616 10620 10625 10630 10635 10640 10646 10651 10656 10658 10663 10669 10673 10673 10675 10678 10681 10686 10692 10696 10699 10701 10703 10707 10711 10715 10718 10721 10724
10555 10553 10551 10549 10548 10546 10545 10544 10542 10541 10540 10539 10539 10538 10538 10537 10537 10537 10537 10537 10538 10539 10539 10540 10542 10543 10544 10544 10545 10546 10547 10548 10550 10552 10553 10554 10555 10556 10557 10559 10560 10562 10563 10565 10567 10568 10570 10573 10575 10577 10579 10583 10587 10591 10596 10601 10605 10609 10614 10619 10624 10629 10635 10640 10643 10646 10650 10655 10659 10661 10664 10668 10672 10676 10681 10685 10688 10690 10692 10696 10699 10703 10707 10710 10713
10553 10551 10548 10547 10545 10543 10542 10541 10540 10538 10537 10537 10536 10535 10535 10534 10534 10533 10533 10533 10533 10533 10533 10534 10536 10537 10538 10539 10539 10539 10540 10541 10542 10543 10545 10546 10546 10547 10548 10550 10552 10553 10554 10555 10557 10559 10560 10562 10564 10566 10568 10571 10575 10580 10584 10588 10593 10597 10602 10607 10612 10616 10620 10624 10628 10632 10636 10641 10646 10650 10655 10658 10661 10663 10668 10673 10676 10678 10681 10684 10688 10692 10695 10699 10702
10550 10548 10546 10544 10542 10540 10539 10537 10536 10535 10534 10533 10532 10532 10531 10530 10530 10530 10529 10529 10529 10528 10528 10529 10529 10530 10531 10532 10533 10533 10534 10534 10534 10535 10536 10537 10538 10539 10540 10541 10543 10544 10545 10546 10547 10549 10551 10553 10554 10556 10558 10561 10564 10568 10572 10576 10580 10585 10588 10591 10594 10597 10600 10605 10610 10615 10620 10625 10631 10637 10642 10644 10646 10650 10655 10661 10665 10668 10671 10674 10678 10681 10684 10687 10690
10546 10544 10541 10539 10538 10536 10535 10533 10532 10530 10529 10529 10528 10527 10526 10526 10525 10525 10524 10524 10524 10523 10523 10523 10523 10523 10524 10525 10526 10526 10527 10527 10528 10528 10528 10529 10530 10531 10532 10533 10534 10535 10536 10537 10538 10540 10542 10543 10545 10547 10548 10550 10553 10556 10560 10563 10567 10571 10574 10577 10580 10583 10586 10591 10596 10601 10606 10612 10618 10624 10628 10632 10635 10640 10645 10650 10654 10657 10659 10663 10666 10669 10672 10674 10677
10540 10538 10536 10534 10533 10531 10529 10528 10526 10525 10524 10523 10522 10521 10521 10520 10519 10519 10518 10518 10518 10518 10517 10517 10517 10517 10517 10517 10518 10519 10519 10520 10521 10521 10521 10521 10522 10523 10524 10525 10526 10527 10528 10529 10530 10531 10532 10534 10535 10537 10538 10540 10542 10545 10548 10551 10554 10558 10561 10565 10569 10572 10576 10580 10584 10589 10594 10599 10604 10610 10615 10620 10625 10631 10636 10641 10644 10645 10647 10652 10656 10657 10658 10660 10662
10534 10533 10530 10529 10527 10525 10524 10522 10521 10519 10518 10517 10516 10515 10514 10513 10513 10512 10512 10511 10511 10511 10511 10511 10511 10510 10510 10510 10511 10511 10512 10512 10513 10513 10513 10514 10514 10515 10516 10516 10518 10520 10521 10521 10522 10523 10524 10525 10526 10527 10528 10530 10532 10534 10537 10539 10542 10545 10549 10553 10556 10560 10563 10567 10571 10576 10581 10586 10592 10598 10603 10608 10614 10620 10625 10628 10630 10631 10633 10636 10637 10637 10638 10641 10644
10529 10527 10525 10523 10521 10520 10518 10516 10515 10513 10512 10511 10510 10509 10508 10507 10506 10506 10505 10504 10504 10503 10504 10504 10503 10503 10503 10503 10503 10503 10503 10503 10504 10504 10505 10506 10506 10507 10508 10508 10509 10511 10512 10512 10513 10514 10515 10516 10517 10518 10519 10521 10523 10525 10527 10529 10531 10534 10538 10541 10544 10547 10550 10554 10559 10564 10569 10574 10580 10586 10591 10597 10601 10605 10607 10609 10612 10614 10615 10613 10612 10614 10619 10625 10629
10524 10522 10520 10518 10516 10514 10512 10510 10509 10507 10506 10505 10503 10502 10501 10501 10500 10499 10498 10497 10496 10496 10496 10496 10495 10495 10495 10495 10495 10495 10494 10494 10494 10495 10496 10497 10497 10498 10499 10500 10500 10501 10502 10503 10504 10505 10506 10508 10509 10510 10511 10512 10514 10516 10518 10519 10521 10524 10526 10529 10532 10535 10538 10542 10548 10553 10556 10561 10568 10574 10579 10583 10586 10587 10590 10594 10598 10599 10599 10599 10600 10604 10609 10614 10619
10518 10516 10514 10512 10510 10508 10506 10504 10503 10501 10500 10498 10497 10496 10495 10494 10493 10492 10491 10490 10489 10488 10488 10488 10487 10487 10487 10487 10486 10486 10485 10485 10485 10486 10486 10487 10488 10489 10490 10491 10492 10492 10493 10494 10495 10496 10497 10499 10500 10501 10503 10504 10506 10507 10509 10510 10511 10513 10516 10518 10521 10524 10527 10531 10536 10540 10544 10549 10556 10561 10565 10568 10570 10572 10575 10580 10584 10585 10586 10588 10591 10594 10598 10602 10607
10514 10511 10509 10507 10504 10502 10500 10499 10497 10495 10494 10492 10491 10489 10488 10487 10486 10485 10484 10483 10482 10481 10480 10480 10479 10479 10479 10478 10478 10477 10476 10476 10477 10477 10477 10478 10479 10479 10481 10482 10482 10483 10484 10485 10486 10486 10488 10490 10491 10493 10494 10496 10497 10499 10500 10501 10502 10504 10505 10508 10511 10514 10516 10519 10523 10527 10532 10537 10543 10547 10550 10553 10555 10558 10560 10564 10568 10571 10573 10575 10578 10581 10585 10589 10594
10511 10508 10505 10503 10501 10498 10496 10494 10492 10490 10489 10487 10485 10484 10482 10481 10479 10478 10477 10476 10475 10474 10473 10472 10471 10471 10470 10470 10469 10468 10468 10467 10468 10468 10469 10469 10469 10470 10471 10472 10473 10473 10475 10476 10476 10477 10478 10480 10481 10483 10486 10488 10489 10490 10491 10492 10493 10494 10496 10498 10501 10503 10505 10507 10510 10514 10519 10524 10529 10532 10534 10536 10538 10540 10544 10548 10552 10556 10559 10562 10566 10569 10572 10576 10581
10508 10506 10503 10500 10498 10495 10493 10491 10489 10486 10484 10483 10481 10479 10477 10475 10473 10472 10470 10469 10468 10467 10466 10465 10464 10463 10462 10462 10461 10460 10459 10459 10459 10459 10459 10460 10460 10461 10461 10462 10463 10464 10465 10466 10467 10468 10468 10470 10471 10474 10476 10478 10480 10482 10482 10483 10484 10485 10487 10489 10490 10492 10494 10496 10499 10502 10506 10510 10514 10518 10520 10521 10522 10525 10529 10534 10538 10542 10545 10548 10552 10555 10559 10563 10567
10505 10503 10500 10498 10495 10493 10490 10488 10485 10483 10481 10479 10477 10475 10473 10471 10469 10467 10465 10463 10461 10460 10459 10458 10457 10456 10455 10454 10453 10452 10451 10450 10450 10450 10450 10451 10451 10452 10452 10453 10453 10454 10455 10457 10458 10458 10459 10460 10462 10464 10466 10468 10470 10472 10473 10474 10475 10476 10478 10480 10481 10482 10484 10486 10487 10490 10493 10497 10501 10505 10507 10508 10509 10512 10516 10520 10523 10526 10529 10533 10537 10540 10544 10548 10552
10503 10501 10498 10496 10493 10490 10488 10485 10483 10480 10478 10476 10473 10471 10469 10467 10464 10462 10460 10458 10456 10454 10452 10451 10449 10448 10447 10446 10445 10444 10443 10442 10442 10441 10441 10441 10442 10442 10443 10443 10444 10444 10445 10447 10448 10449 10449 10450 10452 10454 10456 10458 10460 10462 10464 10465 10466 10467 10469 10471 10472 10473 10474 10475 10477 10479 10481 10484 10488 10491 10494 10495 10497 10499 10503 10505 10508 10511 10515 10518 10522 10526 10530 10534 10538